[[{"header":{"parameterUnit":"m.s-1","parameterCategory":1,"la1":30.2991,"la2":30.254,"lo1":-89.0895,"lo2":-89.0444,"dy":0.0017,"dx":0.0017,"nx":28,"ny":28,"refTime":"2024-08-10T15:00:00:Z","depth":0,"parameterNumber":2,"parameterNumberName":"U-component_of_WINDS"},"data":[0,0,0,0,0,0,0,0,0,0,0,0,0,0,0,0,0,0,0,0,0,0,0,0,0,0,0,0,0,0,0,0,0,0,0,0,0,0,0,0,0,0,0,0,0,0,0,0,0,0,0,0,0,0,0,0,0,0,3.4023,3.4024,0,3.4078,3.4079,3.408,3.3948,3.3943,3.3939,3.3935,3.3994,3.3999,3.4005,0,0,0,0,0,0,0,0,0,0,0,0,0,3.3806,3.3811,3.4023,3.4024,3.4025,3.4078,3.4079,3.408,3.3948,3.3943,3.3938,3.3933,3.3992,3.3999,3.4005,0,0,0,0,0,0,0,0,0,0,0,0,0,3.3885,3.3812,3.4023,3.3966,3.3961,3.4078,3.4079,3.408,3.3949,3.3943,3.3937,3.3931,3.399,3.3998,3.4006,3.4182,0,0,3.4031,3.4035,0,0,0,0,0,0,0,0,3.388,3.3893,3.3973,3.397,3.3965,3.4,3.4024,3.4114,3.3951,3.3954,3.3935,3.3928,3.4001,3.4008,3.4032,3.4185,3.4187,3.4032,3.4037,3.404,3.4043,0,0,0,0,0,0,0,3.3875,3.389,3.4045,3.3975,3.397,3.3937,3.3942,3.404,3.4012,3.3953,3.3944,3.3952,3.3997,3.4025,3.4032,3.4188,3.4031,3.4039,3.4044,3.4047,3.4487,3.4493,0,0,0,0,0,0,3.3877,3.3886,3.4043,3.4047,3.3906,3.3946,3.3951,3.3995,3.4011,3.4007,3.3957,3.3946,3.4014,3.4023,3.4034,3.424,3.404,3.4048,3.4053,3.448,3.4489,3.4496,0,0,0,0,0,0,3.3873,3.3892,3.4041,3.3964,3.398,3.3957,3.4007,3.3999,3.4026,3.4014,3.4008,3.399,3.4009,3.4023,3.4146,3.424,3.4052,3.4059,3.4472,3.4483,3.4492,3.4654,0,0,0,0,0,0,3.3867,3.3891,3.3958,3.3966,3.3985,3.4152,3.4013,3.4005,3.404,3.4026,3.4043,3.404,3.4005,3.4134,3.4154,3.4248,3.4065,3.4464,3.4477,3.4489,3.464,3.4669,3.4693,0,0,0,0,0,3.386,3.4002,3.3962,3.3982,3.4068,3.4158,3.4168,3.4125,3.4048,3.4115,3.4107,3.4039,3.4227,3.4148,3.4169,3.4267,3.4458,3.4473,3.4488,3.4629,3.4663,3.4692,0,0,0,0,0,0,3.4006,3.4002,3.3958,3.4107,3.4134,3.4135,3.4218,3.4163,3.4213,3.4197,3.4142,3.4147,3.4281,3.4286,3.4198,3.4438,3.4329,3.4349,3.4429,3.4462,3.4488,3.4483,3.4072,0,0,0,0,0,3.4056,3.4129,3.4122,3.4254,3.427,3.4242,3.428,3.4244,3.427,3.4281,3.4281,3.431,3.4374,3.4419,3.4478,3.4641,3.4642,3.4719,3.4745,3.4767,3.4785,3.487,3.4903,3.4546,3.4546,3.4546,0,0,3.4159,3.4166,3.4216,3.4284,3.43,3.4377,3.4253,3.434,3.4396,3.4294,3.441,3.4412,3.4439,3.4583,3.4646,3.4592,3.4884,3.4786,3.4804,3.4809,3.4889,3.4923,3.4953,3.4556,3.4554,3.4553,0,0,3.4387,3.44,3.4511,3.453,3.4556,3.4536,3.4563,3.4573,3.457,3.4685,3.461,3.4677,3.4791,3.4813,3.4839,3.5075,3.5014,3.5096,3.5233,3.5317,3.5345,3.5369,3.5452,3.5483,3.5114,3.5114,3.5115,0,3.4512,3.4624,3.4575,3.4667,3.4699,3.4609,3.4721,3.4742,3.4787,3.4811,3.4749,3.4889,3.4901,3.5048,3.5106,3.5131,3.5159,3.5093,3.5345,3.5369,3.5391,3.5469,3.5501,3.5124,3.5123,3.5122,3.5121,0,3.4776,3.4856,3.4942,3.4986,3.5028,3.513,3.5096,3.5145,3.5106,3.5093,3.5211,3.5223,3.5282,3.5315,3.5278,3.5457,3.5422,3.5354,3.5243,3.5436,3.5508,3.5538,3.5138,3.5134,3.5131,3.5129,0,0,3.5097,3.5112,3.5145,3.5163,3.5185,3.5246,3.5343,3.5401,3.5443,3.5477,3.5557,3.5655,3.5591,3.5621,3.5586,3.566,3.5844,3.5582,3.5582,3.5629,3.604,3.609,3.6126,3.5805,3.581,3.5815,3.6037,0,3.532,3.5486,3.5445,3.561,3.5682,3.5598,3.5683,3.5706,3.5697,3.5757,3.5747,3.5817,3.5728,3.5746,3.5815,3.5807,3.5926,3.5791,3.5878,3.5882,3.5872,3.6164,3.6217,3.6427,3.6065,3.607,3.6074,0,3.5603,3.5646,3.5819,3.5828,3.5856,3.5934,3.5982,3.6041,3.6065,3.6053,3.6087,3.6037,3.6133,3.6023,3.6155,3.6064,3.6097,3.6099,3.6106,3.6111,3.5988,3.6175,3.6493,3.6524,3.6118,3.6115,3.6111,0,3.5817,3.5919,3.6035,3.6054,3.6068,3.6124,3.6133,3.615,3.6187,3.623,3.6253,3.6308,3.6337,3.6381,3.6346,3.627,3.6483,3.6371,3.6475,3.6477,3.6523,3.652,3.6849,3.6548,3.6547,3.6547,3.6546,0,3.607,3.6178,3.6131,3.6203,3.6321,3.6273,3.6392,3.6391,3.6408,3.6477,3.6409,3.6475,3.6427,3.649,3.6465,3.6577,3.6591,3.6584,3.6575,3.6589,3.659,3.6609,3.6593,3.6555,3.6553,3.6552,3.655,0,3.6329,3.6302,3.6422,3.6426,3.6429,3.6516,3.6519,3.6585,3.6571,3.666,3.6678,3.6656,3.6726,3.6697,3.6772,3.6754,3.6897,3.6871,3.6889,3.6881,3.6987,3.6977,3.7338,3.7382,3.7055,3.7058,3.7061,0,3.6491,3.6572,3.6584,3.6625,3.6638,3.6706,3.6742,3.6698,3.6739,3.6773,3.6835,3.6899,3.6948,3.7064,3.7055,3.7112,3.7084,3.7207,3.7093,3.7103,3.7084,3.7079,3.7086,3.723,3.7234,3.7237,3.7239,0,3.6781,3.6764,3.6819,3.687,3.6916,3.6954,3.6986,3.7024,3.6981,3.7031,3.7101,3.7139,3.7215,3.7279,3.7329,3.7338,3.7282,3.7275,3.7302,3.7316,3.7323,3.7319,3.695,3.7267,3.7264,3.7262,3.7261,3.726,3.6995,3.7063,3.7081,3.7145,3.7165,3.7196,3.7258,3.7251,3.7309,3.7366,3.7337,3.7418,3.744,3.7501,3.7518,3.7581,3.7533,3.7573,3.7582,3.7592,3.7605,3.7314,3.7591,3.759,3.7589,3.7588,3.7588,0,3.728,3.7288,3.7347,3.7394,3.7444,3.7386,3.7419,3.7465,3.7537,3.7562,3.7611,3.7692,3.7754,3.7749,3.7806,3.7858,3.7833,3.7874,3.7869,3.7872,3.7646,3.7616,3.7893,3.7893,3.7893,3.7893,3.7893,3.7893,3.7434,3.7545,3.753,3.765,3.7656,3.7735,3.7758,3.7787,3.7806,3.7899,3.795,3.7946,3.7959,3.8017,3.8071,3.8068,3.8091,3.8142,3.8129,3.7918,3.7888,3.7859,3.783,3.8148,3.8148,3.8349,3.8351,3.8352]},{"header":{"parameterUnit":"m.s-1","parameterCategory":1,"la1":30.2991,"la2":30.254,"lo1":-89.0895,"lo2":-89.0444,"dy":0.0017,"dx":0.0017,"nx":28,"ny":28,"refTime":"2024-08-10T15:00:00:Z","depth":0,"parameterNumber":3,"parameterNumberName":"V-component_of_WINDS"},"data":[0,0,0,0,0,0,0,0,0,0,0,0,0,0,0,0,0,0,0,0,0,0,0,0,0,0,0,0,0,0,0,0,0,0,0,0,0,0,0,0,0,0,0,0,0,0,0,0,0,0,0,0,0,0,0,0,0,0,0.0373,0.0373,0,0.0384,0.0384,0.0384,0.035,0.0349,0.0348,0.0347,0.0362,0.0363,0.0364,0,0,0,0,0,0,0,0,0,0,0,0,0,0.0324,0.0325,0.0373,0.0373,0.0373,0.0384,0.0384,0.0384,0.035,0.0349,0.0347,0.0346,0.0361,0.0363,0.0364,0,0,0,0,0,0,0,0,0,0,0,0,0,0.0341,0.0325,0.0373,0.0357,0.0356,0.0384,0.0384,0.0385,0.035,0.0349,0.0347,0.0346,0.0361,0.0363,0.0365,0.0409,0,0,0.0371,0.0372,0,0,0,0,0,0,0,0,0.034,0.0343,0.036,0.0359,0.0357,0.0364,0.0372,0.0393,0.0351,0.0353,0.0347,0.0345,0.0364,0.0366,0.0371,0.041,0.0411,0.0371,0.0372,0.0373,0.0374,0,0,0,0,0,0,0,0.0339,0.0342,0.0378,0.036,0.0358,0.035,0.0351,0.0376,0.0367,0.0352,0.035,0.0351,0.0363,0.0369,0.0371,0.0411,0.0371,0.0373,0.0374,0.0375,0.0484,0.0486,0,0,0,0,0,0,0.034,0.0342,0.0377,0.0378,0.0344,0.0352,0.0353,0.0363,0.0367,0.0366,0.0353,0.035,0.0367,0.0369,0.0372,0.0423,0.0373,0.0375,0.0376,0.0483,0.0485,0.0487,0,0,0,0,0,0,0.0339,0.0343,0.0377,0.0359,0.0363,0.0355,0.0367,0.0364,0.0371,0.0367,0.0366,0.0361,0.0365,0.0369,0.0399,0.0423,0.0376,0.0378,0.0481,0.0483,0.0486,0.0526,0,0,0,0,0,0,0.0337,0.0343,0.036,0.036,0.0364,0.0404,0.0368,0.0366,0.0374,0.037,0.0374,0.0373,0.0364,0.0397,0.0402,0.0425,0.038,0.0479,0.0482,0.0485,0.0523,0.053,0.0536,0,0,0,0,0,0.0336,0.0372,0.0361,0.0365,0.0384,0.0406,0.0408,0.0396,0.0376,0.0393,0.039,0.0373,0.0419,0.04,0.0405,0.043,0.0477,0.0481,0.0485,0.052,0.0528,0.0536,0,0,0,0,0,0,0.0377,0.0372,0.0359,0.0397,0.0401,0.04,0.0421,0.0406,0.0417,0.0414,0.0399,0.04,0.0433,0.0434,0.0413,0.0472,0.0445,0.045,0.047,0.0478,0.0484,0.0483,0.0381,0,0,0,0,0,0.039,0.0407,0.0402,0.0435,0.0438,0.0429,0.0438,0.0427,0.0433,0.0435,0.0435,0.0441,0.0456,0.0467,0.0482,0.0522,0.0522,0.0542,0.0548,0.0553,0.0558,0.0578,0.0586,0.0499,0.0499,0.0499,0,0,0.0418,0.0417,0.0429,0.0443,0.0446,0.0464,0.0431,0.0452,0.0465,0.0439,0.0467,0.0466,0.0472,0.0508,0.0523,0.051,0.0582,0.0558,0.0563,0.0564,0.0583,0.0591,0.0598,0.0501,0.0501,0.05,0,0,0.0478,0.0479,0.0506,0.0509,0.0512,0.0506,0.0512,0.0512,0.051,0.0538,0.0517,0.0533,0.0561,0.0565,0.0571,0.0629,0.0614,0.0634,0.0669,0.0688,0.0695,0.0701,0.0721,0.0728,0.0639,0.0639,0.0639,0,0.0513,0.0538,0.0522,0.0544,0.055,0.0525,0.0551,0.0555,0.0564,0.0569,0.0553,0.0586,0.0588,0.0623,0.0637,0.0643,0.0649,0.0634,0.0695,0.0701,0.0706,0.0725,0.0733,0.0641,0.0641,0.0641,0.0641,0,0.058,0.0598,0.0619,0.0626,0.0634,0.0659,0.0647,0.0657,0.0646,0.0641,0.0668,0.067,0.0683,0.069,0.0681,0.0724,0.0715,0.0697,0.067,0.0717,0.0735,0.0742,0.0645,0.0644,0.0643,0.0643,0,0,0.0668,0.0663,0.0672,0.0673,0.0674,0.0688,0.071,0.0721,0.073,0.0737,0.0755,0.0777,0.076,0.0767,0.0757,0.0774,0.0818,0.0754,0.0754,0.0765,0.0864,0.0877,0.0886,0.0808,0.0809,0.081,0.0863,0,0.0726,0.0763,0.0748,0.0787,0.0802,0.0777,0.0796,0.0799,0.0794,0.0807,0.0802,0.0817,0.0795,0.0798,0.0814,0.081,0.0838,0.0806,0.0824,0.0825,0.0824,0.0895,0.0909,0.096,0.087,0.0871,0.0872,0,0.0799,0.0806,0.0845,0.0841,0.0847,0.0864,0.0872,0.0885,0.0887,0.0882,0.0888,0.0873,0.0895,0.0867,0.0896,0.0874,0.0881,0.0879,0.0881,0.0883,0.0852,0.0898,0.0976,0.0983,0.0883,0.0882,0.0881,0,0.0858,0.0877,0.0902,0.0905,0.0901,0.0914,0.0913,0.0913,0.092,0.0927,0.0931,0.0941,0.0947,0.0955,0.0943,0.0924,0.0973,0.0945,0.097,0.097,0.0982,0.0981,0.1061,0.0987,0.0987,0.0986,0.0986,0,0.0924,0.0949,0.0928,0.0944,0.0971,0.0953,0.0981,0.0977,0.0977,0.0991,0.0971,0.0985,0.0969,0.0981,0.0973,0.0997,0.1,0.0997,0.0994,0.0998,0.0999,0.1003,0.0999,0.0988,0.0988,0.0988,0.0987,0,0.0995,0.0982,0.1008,0.1001,0.1,0.1019,0.1014,0.1028,0.1021,0.1039,0.1042,0.1032,0.1045,0.1034,0.1048,0.1041,0.1074,0.1066,0.1073,0.107,0.1095,0.1093,0.1181,0.1191,0.111,0.1111,0.1112,0,0.1037,0.1055,0.105,0.1057,0.1057,0.1069,0.1075,0.1059,0.1066,0.1068,0.1082,0.1093,0.1101,0.1124,0.1117,0.1127,0.112,0.115,0.1121,0.1124,0.1119,0.1118,0.1119,0.1156,0.1157,0.1157,0.1158,0,0.1114,0.1106,0.1115,0.1122,0.1129,0.1134,0.1137,0.1144,0.1127,0.1136,0.1148,0.1154,0.1167,0.1178,0.1185,0.1185,0.1169,0.1167,0.1173,0.1178,0.118,0.1178,0.1088,0.1165,0.1164,0.1164,0.1163,0.1163,0.1172,0.1186,0.1183,0.1193,0.1193,0.1196,0.1208,0.1201,0.1211,0.1219,0.1208,0.1224,0.1223,0.1231,0.1232,0.1244,0.1231,0.124,0.1243,0.1245,0.1248,0.1178,0.1245,0.1245,0.1245,0.1244,0.1244,0,0.1247,0.1243,0.1253,0.1256,0.1264,0.1246,0.1248,0.1256,0.1269,0.1269,0.1277,0.129,0.13,0.1294,0.1302,0.1313,0.1305,0.1315,0.1315,0.1314,0.1259,0.1253,0.1321,0.1321,0.1321,0.1321,0.1321,0.1321,0.1287,0.1309,0.1301,0.1322,0.1319,0.1332,0.1334,0.1336,0.1336,0.1352,0.1359,0.1354,0.1352,0.1359,0.1368,0.1365,0.1369,0.1382,0.1377,0.1326,0.1318,0.1311,0.1305,0.1383,0.1383,0.1431,0.1432,0.1432]}]]